Flag for U.S.A. Weather past 2 weeks in Fairbanks, Alaska, U.S.A.

Now
53 °F

Low clouds.


Feels Like: 52 °F
Forecast: 51 / 62 °F
Wind: 5 mph from Southwest

Location: Wainwright U. S. Army Airfield

Current Time: Aug 2, 2015 at 1:05:10 AM

Latest Report: Aug 1, 2015 at 11:58 PM


Visibility: 10 mi

Pressure: 30.13 "Hg

Humidity: 91%

Dew point: 50 °F

Location of FairbanksLocation

Historic Weather in Fairbanks — Graph

°F

Fairbanks temperature yesterday

Maximum temperature yesterday: 64 °F (at 11:58 AM)
Minimum temperature yesterday: 49 °F (at 5:58 AM)
Average temperature yesterday: 55 °F

Past Weeks' High & Low Weather Summary

 TemperatureHumidityPressure
High79 °F (Jul 22, 2:55 PM)96% (Jul 18, 4:56 PM)30.19 "Hg (Jul 18, 4:56 PM)
Low48 °F (Jul 29, 6:55 AM)28% (Jul 22, 3:55 PM)29.48 "Hg (Jul 22, 7:55 PM)
Average61 °F69%29.85 "Hg
* Reported Jul 17 11:56 PM — Aug 1 11:58 PM, Fairbanks, Weather by CustomWeather, © 2015

Note: Actual official high and low records may vary slightly from our data, if they occured in-between our weather recording intervals... More about our weather records

Advertising

Fairbanks weather history for previous 24 hours

 ConditionsComfort  
Time TempWeatherWind HumidityBarometerVisibility
11:58 PM
Sat, Aug 1
53 °FLow clouds.5 mph91%30.13 "Hg10 mi
10:58 PM53 °FOvercast.7 mph91%30.12 "Hg10 mi
9:58 PM54 °FBroken clouds.8 mph88%30.11 "Hg9 mi
8:58 PM54 °FMore clouds than sun.8 mph89%30.11 "Hg10 mi
7:58 PM53 °FOvercast.6 mph90%30.10 "Hg10 mi
7:03 PM54 °FLight rain. Mostly cloudy.7 mph88%30.10 "Hg9 mi
5:58 PM53 °FLight rain. Overcast.8 mph86%30.10 "Hg9 mi
4:58 PM53 °FLight rain. Mostly cloudy.12 mph86%30.11 "Hg5 mi
3:58 PM56 °FLight rain. More clouds than sun.10 mph86%30.10 "Hg7 mi
2:58 PM59 °FLight rain. Overcast.9 mph76%30.08 "Hg7 mi
1:58 PM64 °FPartly sunny.15 mph53%30.05 "Hg10 mi
12:58 PM64 °FBroken clouds.15 mph55%30.04 "Hg10 mi
11:58 AM64 °FScattered clouds.8 mph57%30.03 "Hg10 mi
10:58 AM61 °FOvercast.9 mph61%30.05 "Hg10 mi
9:58 AM57 °FPartly sunny.3 mph75%30.05 "Hg10 mi
8:58 AM53 °FPartly sunny.2 mph88%30.05 "Hg10 mi
7:58 AM50 °FBroken clouds.2 mph94%30.05 "Hg10 mi
6:58 AM49 °FOvercast.3 mph95%30.04 "Hg10 mi
5:58 AM49 °FMostly cloudy.3 mph96%30.03 "Hg10 mi
4:58 AM50 °FMostly cloudy.3 mph96%30.02 "Hg10 mi
3:58 AM51 °FClear.No wind96%30.02 "Hg10 mi
2:58 AM52 °FClear.2 mph94%30.01 "Hg10 mi
1:58 AM54 °FClear.5 mph91%30.00 "Hg10 mi
Weather by CustomWeather, © 2015

See weather overviewHow to use our weather pages